STARLINK-1240 (45194 NORAD) Tracking and Keplerian Element Data

This shows tracking and keplerian element data for the satellite.

Feedback or suggestion? Click here.




ElementValue
Catalog45194
NameSTARLINK-1240
Epoch Orbit648
Epoch Day88.25001157
Epoch Year2020
RAAN79.228
Inclination52.9981
Eccentricity0.0001229
Argument of Perigee76.0445
Mean Anonmoly28.9674
Mean Motion15.14337594
Decay Rate-0.00107232
L11 45194U 20012S 20088.25001157 -.00107232 00000-0 -58524-2 0 9990
L22 45194 52.9981 79.2280 0001229 76.0445 28.9674 15.14337594 6483

Live tracking and technical data element details for STARLINK-1240 (NORAD 45194). STARLINK-1240 can be tracked NOW for your location showing map with azimuth and elevation plus other details from your city location.

Track the satellite on the map from your city or location and see movement details for azimuth, elevation, latitude, longitude, range, height, and movement on the map or in text.







IsCatalogInMostPopularTable: catalog: 45194, numindb: 6
Update: records affected: 1



GetName: 45194 STARLINK-1240

Hit Count: updated at: Tue, 31 Mar 2020 12:10:30 GMT